| time (UTC) | temp C | wind direction | speed KPH | gust KPH | rain 1hr cm | rain 24hr cm | rain mn cm | humidity % | barometer mb |
| 20260506070657 | 7 | 63 | 0.0 | 0.0 | 0.18 | 0.36 | 0.36 | 99 | 1026.0 |
| 20260506070154 | 7 | 65 | 0.0 | 0.0 | 0.18 | 0.36 | 0.36 | 99 | 1025.8 |
| 20260506062131 | 7 | 53 | 0.0 | 0.0 | 0.18 | 0.30 | 0.30 | 99 | 1026.3 |
| 20260506061627 | 7 | 53 | 0.0 | 0.0 | 0.36 | 0.30 | 0.30 | 99 | 1026.4 |
| 20260506061125 | 7 | 60 | 0.0 | 0.0 | 0.18 | 0.28 | 0.28 | 99 | 1026.5 |
| 20260506060623 | 7 | 48 | 0.0 | 0.0 | 0.00 | 0.25 | 0.25 | 99 | 1026.8 |
| 20260506060120 | 7 | 43 | 0.0 | 0.0 | 0.13 | 0.25 | 0.25 | 99 | 1026.7 |
| 20260506051052 | 7 | 67 | 0.0 | 0.0 | 0.13 | 0.10 | 0.10 | 99 | 1027.8 |
| 20260506050550 | 7 | 45 | 0.0 | 0.0 | 0.18 | 0.08 | 0.08 | 99 | 1028.4 |
| 20260506045040 | 7 | 55 | 0.0 | 0.0 | 0.00 | 0.03 | 0.03 | 99 | 1028.3 |
| 20260506044538 | 7 | 53 | 0.0 | 0.0 | 0.00 | 0.03 | 0.03 | 99 | 1028.2 |
| 20260506044035 | 7 | 63 | 0.0 | 0.0 | 0.18 | 0.03 | 0.03 | 99 | 1028.0 |
| 20260506043532 | 7 | 343 | 3.2 | 3.2 | 0.18 | 0.03 | 0.03 | 99 | 1028.4 |
| 20260506043030 | 7 | 71 | 3.2 | 4.8 | 0.00 | 0.00 | 0.00 | 99 | 1028.1 |
| 20260506042529 | 7 | 290 | 4.8 | 8.0 | 0.00 | 0.00 | 0.00 | 99 | 1029.1 |
| 20260506042027 | 7 | 240 | 4.8 | 4.8 | 0.00 | 0.00 | 0.00 | 99 | 1027.8 |
| 20260506041525 | 7 | 199 | 0.0 | 0.0 | 0.00 | 0.00 | 0.00 | 99 | 1028.1 |
| 20260506041021 | 7 | 36 | 0.0 | 0.0 | 0.00 | 0.00 | 0.00 | 99 | 1028.0 |
| 20260506040519 | 7 | 60 | 0.0 | 0.0 | 0.00 | 0.00 | 0.00 | 99 | 1028.0 |
| 20260506040015 | 7 | 37 | 0.0 | 1.6 | 0.00 | 1.07 | 1.07 | 99 | 1028.1 |
| 20260506035512 | 7 | 61 | 0.0 | 0.0 | 0.00 | 1.07 | 1.07 | 99 | 1028.0 |
| 20260506035009 | 7 | 60 | 0.0 | 0.0 | 0.00 | 1.07 | 1.07 | 99 | 1028.1 |
| 20260506034507 | 7 | 59 | 0.0 | 0.0 | 0.00 | 1.07 | 1.07 | 99 | 1028.4 |
| 20260506034003 | 7 | 59 | 0.0 | 0.0 | 0.00 | 1.07 | 1.07 | 99 | 1028.3 |
| 20260506033500 | 7 | 59 | 0.0 | 0.0 | 0.00 | 1.07 | 1.07 | 99 | 1028.2 |
| 20260506032957 | 7 | 46 | 0.0 | 0.0 | 0.00 | 1.07 | 1.07 | 99 | 1028.2 |
| 20260506032455 | 7 | 56 | 0.0 | 0.0 | 0.00 | 1.07 | 1.07 | 99 | 1028.1 |
| 20260506031951 | 7 | 66 | 0.0 | 0.0 | 0.00 | 1.07 | 1.07 | 99 | 1028.0 |
| 20260506031448 | 7 | 68 | 0.0 | 0.0 | 0.00 | 1.07 | 1.07 | 99 | 1028.1 |
| 20260506030946 | 7 | 71 | 0.0 | 0.0 | 0.00 | 1.07 | 1.07 | 99 | 1028.5 |
| 20260506030444 | 7 | 51 | 1.6 | 1.6 | 0.00 | 1.07 | 1.07 | 99 | 1028.2 |
| 20260506025940 | 7 | 61 | 0.0 | 0.0 | 0.00 | 1.07 | 1.07 | 99 | 1028.1 |
| 20260506025437 | 7 | 56 | 0.0 | 0.0 | 0.00 | 1.07 | 1.07 | 99 | 1027.8 |
| 20260506024934 | 7 | 48 | 0.0 | 1.6 | 0.00 | 1.07 | 1.07 | 99 | 1028.3 |
| 20260506024431 | 7 | 54 | 0.0 | 0.0 | 0.13 | 1.07 | 1.07 | 99 | 1028.3 |
| 20260506023926 | 7 | 66 | 0.0 | 0.0 | 0.48 | 1.07 | 1.07 | 99 | 1028.3 |
| 20260506023424 | 7 | 62 | 0.0 | 0.0 | 0.61 | 1.07 | 1.07 | 99 | 1028.4 |
| 20260506022920 | 8 | 79 | 0.0 | 0.0 | 0.43 | 0.99 | 0.99 | 99 | 1028.6 |
| 20260506022418 | 8 | 57 | 0.0 | 0.0 | 0.48 | 0.97 | 0.97 | 99 | 1028.7 |
| 20260506021916 | 8 | 65 | 0.0 | 0.0 | 0.48 | 0.91 | 0.91 | 99 | 1028.6 |
| 20260506021413 | 8 | 65 | 0.0 | 0.0 | 0.61 | 0.89 | 0.89 | 99 | 1028.4 |
| 20260506020910 | 8 | 65 | 0.0 | 0.0 | 0.43 | 0.84 | 0.84 | 99 | 1028.6 |
| 20260506020408 | 8 | 64 | 0.0 | 0.0 | 0.79 | 0.81 | 0.81 | 99 | 1028.5 |
| 20260506015905 | 8 | 58 | 0.0 | 0.0 | 0.97 | 0.76 | 0.76 | 99 | 1028.8 |
| 20260506015402 | 8 | 67 | 0.0 | 1.6 | 0.89 | 0.69 | 0.69 | 99 | 1028.6 |
| 20260506014859 | 8 | 64 | 0.0 | 0.0 | 0.61 | 0.64 | 0.64 | 99 | 1028.6 |
| 20260506014356 | 8 | 64 | 0.0 | 0.0 | 0.00 | 0.53 | 0.53 | 99 | 1028.5 |
| 20260506013852 | 8 | 66 | 0.0 | 0.0 | 0.18 | 0.53 | 0.53 | 99 | 1028.0 |
| 20260506013350 | 9 | 60 | 0.0 | 0.0 | 0.18 | 0.53 | 0.53 | 99 | 1028.5 |
| 20260506012846 | 9 | 86 | 0.0 | 0.0 | 0.00 | 0.51 | 0.51 | 99 | 1028.5 |
| 20260506012343 | 9 | 64 | 0.0 | 0.0 | 0.13 | 0.51 | 0.51 | 99 | 1028.3 |
| 20260506011840 | 9 | 78 | 0.0 | 0.0 | 0.30 | 0.51 | 0.51 | 99 | 1028.3 |
| 20260506011337 | 10 | 79 | 0.0 | 0.0 | 0.30 | 0.51 | 0.51 | 99 | 1028.0 |
| 20260506010834 | 9 | 95 | 0.0 | 0.0 | 0.00 | 0.46 | 0.46 | 99 | 1028.3 |
| 20260506010332 | 10 | 88 | 0.0 | 0.0 | 0.13 | 0.46 | 0.46 | 99 | 1028.3 |
| 20260506005829 | 10 | 74 | 0.0 | 0.0 | 0.13 | 0.46 | 0.46 | 99 | 1028.2 |
| 20260506005326 | 10 | 69 | 0.0 | 0.0 | 0.00 | 0.43 | 0.43 | 99 | 1028.0 |
| 20260506004822 | 10 | 69 | 0.0 | 0.0 | 0.00 | 0.43 | 0.43 | 99 | 1027.8 |
| 20260506004320 | 10 | 36 | 0.0 | 0.0 | 0.18 | 0.43 | 0.43 | 99 | 1027.6 |
| 20260506003815 | 10 | 3 | 0.0 | 0.0 | 0.18 | 0.43 | 0.43 | 98 | 1027.8 |
| 20260506003312 | 10 | 74 | 0.0 | 0.0 | 0.30 | 0.41 | 0.41 | 98 | 1028.1 |
| 20260506002808 | 10 | 45 | 0.0 | 1.6 | 0.30 | 0.41 | 0.41 | 98 | 1028.0 |
| 20260506002306 | 10 | 345 | 1.6 | 3.2 | 0.00 | 0.36 | 0.36 | 98 | 1028.1 |
| 20260506001801 | 10 | 40 | 0.0 | 0.0 | 0.18 | 0.36 | 0.36 | 98 | 1027.7 |
| 20260506001258 | 10 | 36 | 1.6 | 1.6 | 0.18 | 0.36 | 0.36 | 97 | 1027.5 |
| 20260506000755 | 10 | 57 | 0.0 | 0.0 | 0.00 | 0.33 | 0.33 | 97 | 1027.3 |
| 20260506000254 | 10 | 24 | 0.0 | 1.6 | 0.00 | 0.33 | 0.33 | 97 | 1027.2 |
| 20260505235749 | 10 | 47 | 0.0 | 1.6 | 0.00 | 0.33 | 0.33 | 97 | 1027.3 |
| 20260505235247 | 11 | 34 | 0.0 | 1.6 | 0.00 | 0.33 | 0.33 | 96 | 1027.1 |
| 20260505234743 | 11 | 44 | 0.0 | 0.0 | 0.00 | 0.33 | 0.33 | 96 | 1026.9 |
| 20260505234241 | 11 | 36 | 4.8 | 8.0 | 0.00 | 0.33 | 0.33 | 95 | 1027.1 |
| 20260505233737 | 11 | 27 | 4.8 | 4.8 | 0.00 | 0.33 | 0.33 | 95 | 1027.4 |
| 20260505233236 | 11 | 40 | 3.2 | 3.2 | 0.13 | 0.33 | 0.33 | 94 | 1027.2 |
| 20260505232732 | 11 | 62 | 0.0 | 0.0 | 0.13 | 0.33 | 0.33 | 93 | 1027.4 |
| 20260505232230 | 12 | 12 | 1.6 | 1.6 | 0.30 | 0.30 | 0.30 | 92 | 1027.4 |
| 20260505231726 | 12 | 79 | 1.6 | 3.2 | 0.30 | 0.30 | 0.30 | 91 | 1027.3 |
| 20260505231226 | 13 | 359 | 9.7 | 11.3 | 0.13 | 0.28 | 0.28 | 88 | 1027.1 |
| 20260505230723 | 13 | 267 | 4.8 | 8.0 | 0.00 | 0.25 | 0.25 | 84 | 1026.9 |
| 20260505230219 | 13 | 290 | 6.4 | 8.0 | 0.00 | 0.25 | 0.25 | 82 | 1026.6 |
| 20260505225716 | 14 | 18 | 1.6 | 3.2 | 0.00 | 0.25 | 0.25 | 81 | 1026.7 |
| 20260505225213 | 14 | 1 | 4.8 | 8.0 | 0.00 | 0.25 | 0.25 | 80 | 1026.7 |
| 20260505224708 | 15 | 4 | 4.8 | 8.0 | 0.00 | 0.25 | 0.25 | 79 | 1026.6 |
| 20260505224206 | 15 | 12 | 6.4 | 9.7 | 0.00 | 0.25 | 0.25 | 79 | 1026.4 |
| 20260505223704 | 15 | 353 | 4.8 | 8.0 | 0.00 | 0.25 | 0.25 | 78 | 1026.3 |
| 20260505223159 | 15 | 22 | 8.0 | 11.3 | 0.00 | 0.25 | 0.25 | 77 | 1026.4 |
| 20260505222656 | 16 | 42 | 6.4 | 11.3 | 0.00 | 0.25 | 0.25 | 76 | 1026.0 |
| 20260505222152 | 16 | 327 | 4.8 | 8.0 | 0.00 | 0.25 | 0.25 | 76 | 1026.2 |
| 20260505221649 | 16 | 343 | 8.0 | 9.7 | 0.00 | 0.25 | 0.25 | 75 | 1026.0 |
| 20260505221146 | 16 | 33 | 3.2 | 3.2 | 0.00 | 0.25 | 0.25 | 74 | 1025.6 |
| 20260505220643 | 17 | 21 | 4.8 | 4.8 | 0.00 | 0.25 | 0.25 | 74 | 1025.7 |
| 20260505220141 | 17 | 355 | 4.8 | 4.8 | 0.00 | 0.25 | 0.25 | 73 | 1025.6 |
| 20260505215638 | 17 | 312 | 3.2 | 3.2 | 0.00 | 0.25 | 0.25 | 73 | 1025.4 |
| 20260505215136 | 17 | 17 | 4.8 | 4.8 | 0.00 | 0.25 | 0.25 | 72 | 1025.2 |
| 20260505214634 | 17 | 51 | 1.6 | 3.2 | 0.00 | 0.25 | 0.25 | 71 | 1025.1 |
| 20260505214131 | 18 | 337 | 4.8 | 8.0 | 0.00 | 0.25 | 0.25 | 71 | 1025.2 |
| 20260505213629 | 18 | 321 | 4.8 | 4.8 | 0.00 | 0.25 | 0.25 | 70 | 1025.0 |
| 20260505213125 | 18 | 321 | 3.2 | 3.2 | 0.00 | 0.25 | 0.25 | 69 | 1024.8 |
| 20260505212620 | 18 | 301 | 8.0 | 11.3 | 0.00 | 0.25 | 0.25 | 69 | 1024.8 |
| 20260505212119 | 18 | 302 | 8.0 | 8.0 | 0.00 | 0.25 | 0.25 | 68 | 1024.9 |
| 20260505211615 | 19 | 17 | 3.2 | 3.2 | 0.00 | 0.25 | 0.25 | 67 | 1024.8 |
| 20260505211113 | 18 | 307 | 3.2 | 3.2 | 0.00 | 0.25 | 0.25 | 68 | 1024.8 |
| 20260505210609 | 19 | 277 | 9.7 | 12.9 | 0.00 | 0.25 | 0.25 | 66 | 1024.9 |
| 20260505210106 | 19 | 305 | 8.0 | 11.3 | 0.00 | 0.25 | 0.25 | 68 | 1024.7 |
| 20260505205604 | 19 | 298 | 6.4 | 9.7 | 0.00 | 0.25 | 0.25 | 68 | 1024.6 |
| 20260505205101 | 19 | 281 | 4.8 | 8.0 | 0.00 | 0.25 | 0.25 | 71 | 1024.1 |
| 20260505204558 | 18 | 185 | 3.2 | 3.2 | 0.00 | 0.25 | 0.25 | 74 | 1024.4 |
| 20260505204056 | 18 | 101 | 1.6 | 1.6 | 0.00 | 0.25 | 0.25 | 75 | 1024.3 |
| 20260505203552 | 18 | 185 | 3.2 | 4.8 | 0.00 | 0.25 | 0.25 | 75 | 1024.4 |
| 20260505203049 | 18 | 138 | 3.2 | 3.2 | 0.00 | 0.25 | 0.25 | 75 | 1024.7 |
| 20260505202545 | 18 | 244 | 1.6 | 3.2 | 0.00 | 0.25 | 0.25 | 74 | 1024.5 |
| 20260505202041 | 18 | 152 | 3.2 | 3.2 | 0.00 | 0.25 | 0.25 | 75 | 1024.8 |
| 20260505201538 | 18 | 277 | 3.2 | 4.8 | 0.00 | 0.25 | 0.25 | 74 | 1025.1 |
| 20260505201036 | 18 | 221 | 6.4 | 11.3 | 0.00 | 0.25 | 0.25 | 74 | 1025.0 |
| 20260505200533 | 17 | 279 | 6.4 | 9.7 | 0.00 | 0.25 | 0.25 | 75 | 1024.7 |
| 20260505200030 | 17 | 298 | 9.7 | 11.3 | 0.00 | 0.25 | 0.25 | 74 | 1025.0 |
| 20260505195526 | 17 | 255 | 8.0 | 9.7 | 0.00 | 0.25 | 0.25 | 77 | 1025.1 |
| 20260505195024 | 16 | 266 | 8.0 | 11.3 | 0.18 | 0.25 | 0.25 | 80 | 1025.0 |
| 20260505194521 | 16 | 286 | 8.0 | 9.7 | 0.18 | 0.25 | 0.25 | 82 | 1025.1 |
| 20260505194016 | 16 | 299 | 11.3 | 12.9 | 0.13 | 0.23 | 0.23 | 79 | 1025.2 |
| 20260505193514 | 17 | 291 | 9.7 | 11.3 | 0.13 | 0.23 | 0.23 | 74 | 1024.8 |
| 20260505193011 | 18 | 329 | 8.0 | 9.7 | 0.00 | 0.20 | 0.20 | 67 | 1025.0 |
| 20260505192509 | 19 | 287 | 8.0 | 11.3 | 0.00 | 0.20 | 0.20 | 63 | 1024.7 |
| 20260505192007 | 20 | 279 | 14.5 | 16.1 | 0.00 | 0.20 | 0.20 | 62 | 1024.6 |
| 20260505191505 | 20 | 356 | 1.6 | 3.2 | 0.00 | 0.20 | 0.20 | 63 | 1024.5 |
| 20260505191002 | 20 | 250 | 4.8 | 4.8 | 0.00 | 0.20 | 0.20 | 62 | 1024.4 |
| 20260505190457 | 21 | 286 | 6.4 | 9.7 | 0.00 | 0.20 | 0.20 | 60 | 1024.3 |
| 20260505185952 | 20 | 297 | 6.4 | 8.0 | 0.00 | 0.20 | 0.20 | 60 | 1024.1 |
| 20260505185450 | 20 | 271 | 17.7 | 17.7 | 0.00 | 0.20 | 0.20 | 59 | 1024.1 |
| 20260505184946 | 20 | 278 | 8.0 | 9.7 | 0.00 | 0.20 | 0.20 | 60 | 1024.1 |
| 20260505184443 | 20 | 247 | 9.7 | 14.5 | 0.00 | 0.20 | 0.20 | 62 | 1024.0 |
| 20260505183939 | 20 | 189 | 4.8 | 8.0 | 0.00 | 0.20 | 0.20 | 63 | 1024.3 |
| 20260505183437 | 20 | 286 | 6.4 | 8.0 | 0.00 | 0.20 | 0.20 | 62 | 1024.1 |
| 20260505182933 | 20 | 302 | 11.3 | 14.5 | 0.00 | 0.20 | 0.20 | 62 | 1024.6 |
| 20260505182430 | 21 | 247 | 4.8 | 8.0 | 0.00 | 0.20 | 0.20 | 63 | 1024.4 |
| 20260505181926 | 20 | 192 | 9.7 | 14.5 | 0.00 | 0.20 | 0.20 | 63 | 1024.3 |
| 20260505181424 | 20 | 138 | 9.7 | 11.3 | 0.00 | 0.20 | 0.20 | 63 | 1024.4 |
| 20260505180921 | 20 | 264 | 17.7 | 22.5 | 0.00 | 0.20 | 0.20 | 68 | 1024.5 |
| 20260505180417 | 20 | 294 | 11.3 | 12.9 | 0.00 | 0.20 | 0.20 | 68 | 1024.7 |
| 20260505175914 | 19 | 242 | 8.0 | 9.7 | 0.00 | 0.20 | 0.20 | 72 | 1024.4 |
| 20260505175410 | 18 | 227 | 4.8 | 4.8 | 0.00 | 0.20 | 0.20 | 75 | 1024.3 |
| 20260505174906 | 18 | 273 | 12.9 | 14.5 | 0.00 | 0.20 | 0.20 | 74 | 1023.9 |
| 20260505174404 | 18 | 202 | 4.8 | 8.0 | 0.00 | 0.20 | 0.20 | 78 | 1024.1 |
| 20260505173900 | 17 | 208 | 6.4 | 9.7 | 0.00 | 0.20 | 0.20 | 81 | 1024.6 |
| 20260505173356 | 16 | 248 | 9.7 | 12.9 | 0.00 | 0.20 | 0.20 | 83 | 1024.8 |
| 20260505172854 | 16 | 223 | 4.8 | 8.0 | 0.00 | 0.20 | 0.20 | 88 | 1024.6 |
| 20260505172351 | 15 | 256 | 6.4 | 9.7 | 0.00 | 0.20 | 0.20 | 87 | 1024.4 |
| 20260505171851 | 15 | 278 | 8.0 | 14.5 | 0.00 | 0.20 | 0.20 | 88 | 1025.0 |
| 20260505171348 | 15 | 289 | 8.0 | 11.3 | 0.00 | 0.20 | 0.20 | 88 | 1025.0 |
| 20260505170844 | 15 | 277 | 6.4 | 9.7 | 0.18 | 0.20 | 0.20 | 85 | 1024.9 |
| 20260505170342 | 15 | 235 | 11.3 | 14.5 | 0.30 | 0.20 | 0.20 | 84 | 1025.0 |
| 20260505165837 | 16 | 249 | 8.0 | 14.5 | 0.13 | 0.18 | 0.18 | 80 | 1024.9 |
| 20260505165332 | 18 | 296 | 20.9 | 27.4 | 0.00 | 0.15 | 0.15 | 71 | 1024.6 |
| 20260505164829 | 19 | 268 | 6.4 | 8.0 | 0.00 | 0.15 | 0.15 | 62 | 1024.5 |
| 20260505164325 | 19 | 261 | 11.3 | 14.5 | 0.00 | 0.15 | 0.15 | 60 | 1024.5 |
| 20260505163823 | 19 | 198 | 6.4 | 8.0 | 0.00 | 0.15 | 0.15 | 61 | 1024.3 |
| 20260505163322 | 19 | 251 | 8.0 | 9.7 | 0.00 | 0.15 | 0.15 | 61 | 1024.3 |
| 20260505162820 | 19 | 272 | 9.7 | 12.9 | 0.00 | 0.15 | 0.15 | 60 | 1024.3 |
| 20260505162316 | 19 | 279 | 6.4 | 9.7 | 0.00 | 0.15 | 0.15 | 60 | 1024.1 |
| 20260505161813 | 19 | 280 | 11.3 | 17.7 | 0.00 | 0.15 | 0.15 | 59 | 1024.4 |
| 20260505161310 | 20 | 253 | 14.5 | 24.1 | 0.00 | 0.15 | 0.15 | 59 | 1024.3 |
| 20260505160808 | 20 | 229 | 11.3 | 11.3 | 0.00 | 0.15 | 0.15 | 59 | 1023.9 |
| 20260505160305 | 20 | 194 | 11.3 | 16.1 | 0.00 | 0.15 | 0.15 | 58 | 1023.8 |
| 20260505153244 | 20 | 280 | 12.9 | 14.5 | 0.00 | 0.15 | 0.15 | 59 | 1023.4 |
| 20260505152741 | 20 | 216 | 8.0 | 11.3 | 0.00 | 0.15 | 0.15 | 61 | 1023.6 |
| 20260505152237 | 20 | 202 | 11.3 | 12.9 | 0.00 | 0.15 | 0.15 | 60 | 1023.5 |
| 20260505151732 | 20 | 174 | 8.0 | 8.0 | 0.00 | 0.15 | 0.15 | 62 | 1023.5 |
| 20260505151230 | 20 | 233 | 11.3 | 14.5 | 0.00 | 0.15 | 0.15 | 62 | 1023.8 |
| 20260505150726 | 20 | 251 | 11.3 | 11.3 | 0.00 | 0.15 | 0.15 | 61 | 1023.6 |
| 20260505150223 | 20 | 228 | 9.7 | 16.1 | 0.00 | 0.15 | 0.15 | 62 | 1023.7 |
| 20260505140651 | 18 | 245 | 8.0 | 11.3 | 0.00 | 0.15 | 0.15 | 65 | 1023.4 |
| 20260505140148 | 18 | 255 | 8.0 | 9.7 | 0.00 | 0.15 | 0.15 | 66 | 1023.3 |
| 20260505130112 | 18 | 258 | 8.0 | 11.3 | 0.00 | 0.15 | 0.15 | 69 | 1023.4 |
| 20260505124601 | 17 | 227 | 4.8 | 8.0 | 0.00 | 0.15 | 0.15 | 68 | 1023.5 |
| 20260505124057 | 17 | 208 | 8.0 | 11.3 | 0.00 | 0.15 | 0.15 | 70 | 1023.5 |
| 20260505123554 | 17 | 225 | 11.3 | 14.5 | 0.00 | 0.15 | 0.15 | 69 | 1023.6 |
| 20260505123050 | 17 | 156 | 3.2 | 4.8 | 0.00 | 0.15 | 0.15 | 70 | 1023.2 |
| 20260505122547 | 17 | 204 | 6.4 | 9.7 | 0.00 | 0.15 | 0.15 | 69 | 1023.4 |
| 20260505122044 | 17 | 252 | 11.3 | 16.1 | 0.00 | 0.15 | 0.15 | 70 | 1023.3 |
| 20260505121541 | 17 | 285 | 8.0 | 11.3 | 0.00 | 0.15 | 0.15 | 72 | 1023.3 |
| 20260505121038 | 17 | 306 | 8.0 | 9.7 | 0.00 | 0.15 | 0.15 | 71 | 1023.3 |
| 20260505120534 | 17 | 198 | 6.4 | 11.3 | 0.00 | 0.15 | 0.15 | 71 | 1023.3 |
| 20260505120030 | 17 | 274 | 9.7 | 12.9 | 0.00 | 0.15 | 0.15 | 71 | 1023.4 |
| 20260505115524 | 16 | 240 | 6.4 | 8.0 | 0.00 | 0.15 | 0.15 | 73 | 1023.5 |
| 20260505115022 | 16 | 236 | 8.0 | 9.7 | 0.00 | 0.15 | 0.15 | 73 | 1023.5 |
| 20260505114519 | 16 | 266 | 11.3 | 17.7 | 0.00 | 0.15 | 0.15 | 74 | 1023.4 |
| 20260505114015 | 16 | 206 | 6.4 | 8.0 | 0.00 | 0.15 | 0.15 | 75 | 1023.5 |
| 20260505113512 | 16 | 250 | 4.8 | 8.0 | 0.00 | 0.15 | 0.15 | 75 | 1023.5 |
| 20260505113008 | 15 | 271 | 8.0 | 11.3 | 0.00 | 0.15 | 0.15 | 76 | 1023.4 |
| 20260505112504 | 15 | 248 | 4.8 | 4.8 | 0.00 | 0.15 | 0.15 | 76 | 1023.3 |
| 20260505112002 | 15 | 255 | 9.7 | 17.7 | 0.00 | 0.15 | 0.15 | 76 | 1023.4 |
| 20260505111456 | 15 | 230 | 6.4 | 9.7 | 0.00 | 0.15 | 0.15 | 77 | 1023.4 |
| 20260505110953 | 15 | 239 | 4.8 | 8.0 | 0.00 | 0.15 | 0.15 | 77 | 1023.4 |
| 20260505110449 | 15 | 244 | 4.8 | 4.8 | 0.00 | 0.15 | 0.15 | 77 | 1023.4 |
| 20260505101920 | 15 | 250 | 4.8 | 9.7 | 0.00 | 0.15 | 0.15 | 78 | 1023.0 |
| 20260505101415 | 15 | 244 | 4.8 | 4.8 | 0.00 | 0.15 | 0.15 | 78 | 1023.2 |
| 20260505100911 | 15 | 202 | 6.4 | 9.7 | 0.00 | 0.15 | 0.15 | 78 | 1022.9 |
| 20260505100408 | 15 | 245 | 6.4 | 9.7 | 0.00 | 0.15 | 0.15 | 79 | 1022.8 |
| 20260505095903 | 15 | 221 | 4.8 | 4.8 | 0.00 | 0.15 | 0.15 | 79 | 1022.7 |
| 20260505095401 | 15 | 228 | 4.8 | 4.8 | 0.00 | 0.15 | 0.15 | 78 | 1022.7 |
| 20260505094857 | 14 | 237 | 4.8 | 4.8 | 0.00 | 0.15 | 0.15 | 79 | 1022.8 |
| 20260505094354 | 14 | 190 | 4.8 | 4.8 | 0.00 | 0.15 | 0.15 | 80 | 1022.9 |
| 20260505093849 | 14 | 175 | 4.8 | 4.8 | 0.00 | 0.15 | 0.15 | 79 | 1022.7 |
| 20260505093347 | 15 | 231 | 3.2 | 3.2 | 0.00 | 0.15 | 0.15 | 78 | 1022.8 |
| 20260505092844 | 15 | 247 | 6.4 | 9.7 | 0.00 | 0.15 | 0.15 | 78 | 1023.0 |
| 20260505092342 | 15 | 230 | 6.4 | 8.0 | 0.00 | 0.15 | 0.15 | 78 | 1022.7 |
| 20260505091839 | 15 | 201 | 4.8 | 4.8 | 0.00 | 0.15 | 0.15 | 77 | 1022.7 |
| 20260505091337 | 15 | 232 | 3.2 | 3.2 | 0.00 | 0.15 | 0.15 | 76 | 1022.9 |
| 20260505090835 | 15 | 233 | 4.8 | 4.8 | 0.00 | 0.15 | 0.15 | 77 | 1022.9 |
| 20260505090333 | 15 | 253 | 4.8 | 4.8 | 0.00 | 0.15 | 0.15 | 81 | 1022.7 |
| 20260505085830 | 15 | 249 | 4.8 | 8.0 | 0.00 | 0.15 | 0.15 | 80 | 1023.3 |
| 20260505085328 | 15 | 220 | 6.4 | 8.0 | 0.00 | 0.15 | 0.15 | 77 | 1023.0 |
| 20260505084826 | 15 | 256 | 8.0 | 9.7 | 0.00 | 0.15 | 0.15 | 77 | 1023.1 |
| 20260505084324 | 15 | 193 | 6.4 | 9.7 | 0.00 | 0.15 | 0.15 | 77 | 1023.2 |
| 20260505083820 | 15 | 246 | 4.8 | 4.8 | 0.00 | 0.15 | 0.15 | 78 | 1023.3 |
| 20260505083318 | 15 | 201 | 4.8 | 4.8 | 0.00 | 0.15 | 0.15 | 78 | 1023.2 |
| 20260505082814 | 15 | 219 | 6.4 | 9.7 | 0.00 | 0.15 | 0.15 | 78 | 1023.2 |
| 20260505082311 | 15 | 196 | 3.2 | 4.8 | 0.00 | 0.15 | 0.15 | 78 | 1023.0 |
| 20260505081807 | 15 | 286 | 4.8 | 4.8 | 0.00 | 0.15 | 0.15 | 78 | 1022.8 |
| 20260505081304 | 15 | 247 | 12.9 | 20.9 | 0.00 | 0.15 | 0.15 | 78 | 1022.9 |
| 20260505080800 | 15 | 243 | 8.0 | 11.3 | 0.00 | 0.15 | 0.15 | 78 | 1023.0 |
| 20260505080256 | 14 | 240 | 6.4 | 8.0 | 0.00 | 0.15 | 0.15 | 79 | 1022.9 |
| 20260505075752 | 14 | 263 | 4.8 | 4.8 | 0.00 | 0.15 | 0.15 | 79 | 1022.8 |
| 20260505075250 | 14 | 293 | 8.0 | 9.7 | 0.00 | 0.15 | 0.15 | 80 | 1022.7 |
| 20260505074747 | 14 | 275 | 4.8 | 4.8 | 0.00 | 0.15 | 0.15 | 80 | 1022.8 |
| 20260505074244 | 14 | 278 | 4.8 | 8.0 | 0.00 | 0.15 | 0.15 | 81 | 1022.8 |
| 20260505073741 | 13 | 244 | 6.4 | 9.7 | 0.00 | 0.15 | 0.15 | 83 | 1022.9 |
| 20260505073239 | 13 | 226 | 4.8 | 4.8 | 0.00 | 0.15 | 0.15 | 85 | 1023.1 |
| 20260505072736 | 13 | 243 | 4.8 | 4.8 | 0.00 | 0.15 | 0.15 | 86 | 1022.8 |
| 20260505072232 | 13 | 331 | 3.2 | 3.2 | 0.00 | 0.15 | 0.15 | 87 | 1022.9 |
| 20260505071727 | 13 | 139 | 1.6 | 1.6 | 0.00 | 0.15 | 0.15 | 86 | 1022.9 |
| 20260505071225 | 13 | 176 | 3.2 | 3.2 | 0.00 | 0.15 | 0.15 | 87 | 1022.9 |